Heavy snow, freezing rain and sleet blasting portions of Downstate

Herev are the latest observations from central and southern Illinois as of 5pm.

ILZ025>027-034>036-040-047-049-050-058-095>099-220000-
WEST-CENTRAL ILLINOIS

CITY SKY/WX TMP DP RH WIND PRES REMARKS
QUINCY SNOW 25 21 86 E14 29.93S VSB 1/4 WCI 13
MACOMB* LGT SNOW 26 25 96 E26 30.00F WCI 11
$$

ILZ028>032-037-038-041>044-048-051>054-059>061-220000-
CENTRAL ILLINOIS

CITY SKY/WX TMP DP RH WIND PRES REMARKS
BLOOMINGTON LGT SNOW 27 21 80 E15 30.12R FOG WCI 15
PEORIA LGT SNOW 28 21 75 E20G28 30.08F WCI 15
SPRINGFIELD SNOW 27 25 92 E20G26 29.99F VSB 1/4 WCI 13
TAYLORVILLE NOT AVBL
$$

ILZ033-039-045-046-055>057-062-063-220000-
EAST-CENTRAL ILLINOIS

CITY SKY/WX TMP DP RH WIND PRES REMARKS
CHAMPAIGN SNOW 28 25 86 E16 30.12R VSB 1/4 WCI 17
MATTOON HVY SNOW 27 26 96 E14G20 30.05F VSB 1/4 WCI 16
$$

ILZ079-100>102-220000-
SOUTHWEST ILLINOIS

CITY SKY/WX TMP DP RH WIND PRES REMARKS
BELLEVILLE FRZ RAIN 29 28 96 E20G28 29.90F FOG WCI 16
$$

ILZ064>066-069>071-074>076-080>082-084>086-088>090-092>094-220000-
SOUTH-CENTRAL ILLINOIS

CITY SKY/WX TMP DP RH WIND PRES REMARKS
CARBONDALE FRZ RAIN 32 28 85 E14G33 29.90F FOG WCI 22
SALEM* MIX PCPN 29 28 96 E15G26 29.96F WCI 18
$$

ILZ067-068-072-073-078-083-087-091-220000-
SOUTHEAST ILLINOIS

CITY SKY/WX TMP DP RH WIND PRES REMARKS
$$

Leave a Reply

Fill in your details below or click an icon to log in:

WordPress.com Logo

You are commenting using your WordPress.com account. Log Out / Change )

Twitter picture

You are commenting using your Twitter account. Log Out / Change )

Facebook photo

You are commenting using your Facebook account. Log Out / Change )

Google+ photo

You are commenting using your Google+ account. Log Out / Change )

Connecting to %s